{"data":{"norad_id":65141,"intl_designator":"2025-171K","name":"KUIPER-00103","alt_names":[],"object_type":"PAYLOAD","status":"ACTIVE","operator":null,"country":"US","launch_date":"2025-08-11","launch_site_code":"AFETR","launch_vehicle":null,"mission":null,"orbit_class":"UNKNOWN","rcs_meters":null,"size_class":null,"mass_kg":null,"dimensions":null,"purposes":[],"wikipedia_slug":null,"has_3d_model":false,"image_url":null,"decayed_at":null,"tle_current":{"epoch":"2026-09-21T16:03:44.258400Z","epoch_age_seconds":64142,"freshness":"FRESH","line1":"1 65141U 25171K   26264.66926225  .00000485  00000+0  92671-4 0  9996","line2":"2 65141  51.9007  23.9232 0000322 120.0280 240.0715 14.79931769 61734","mean_motion":14.79931769,"eccentricity":3.22e-5,"inclination_deg":51.9007,"raan_deg":23.9232,"arg_perigee_deg":120.028,"mean_anomaly_deg":240.0715,"bstar":9.2671e-5,"rev_number":6173,"period_min":97.301783106732,"perigee_km":629.31386795586,"apogee_km":629.76516232343,"semimajor_km":7007.6765151396,"source":"CELESTRAK","updated_at":"2026-09-22T09:00:30.153533Z"}}}